Temperature
20 21 22 22 23 22 20 20 20 20 20 20 20 20 21 22 21 21 21 20 20 20 20 20 20 20 20 20 20 19 19 19 18 18 18 18 17 17 17 17 17 16 16 16
20 22 22 22 23 23 22 21 21 21 20 20 20 21 21 21 21 20 20 20 20 20 20 20 20 20 20 20 20 19 19 19 19 18 18 18 17 17 17 17 16 16 16 16
18 20 21 21 21 22 22 21 21 21 20 20 19 19 20 20 20 20 20 21 20 20 20 20 20 20 20 20 20 19 19 19 19 19 18 18 17 17 17 17 16 16 16 16
17 18 19 20 20 22 21 21 20 20 20 19 20 20 20 20 20 20 20 20 20 20 20 20 20 20 20 20 19 19 19 19 19 18 18 18 17 17 17 17 16 16 16 16
16 17 18 20 20 20 20 20 20 19 19 19 19 19 18 19 19 20 20 20 20 20 20 20 20 20 20 19 19 19 19 18 18 18 18 17 17 16 16 16 16 16 16 16
16 17 18 19 19 20 19 19 19 19 19 18 19 17 17 18 19 19 19 19 19 19 19 19 19 19 19 19 18 18 18 18 18 17 17 17 17 16 16 16 15 15 15 15
16 17 18 18 18 19 19 18 18 18 18 18 17 17 17 18 18 18 18 18 18 18 18 18 18 18 18 18 17 17 17 17 17 17 16 16 16 16 15 15 15 15 15 14
15 16 17 17 17 17 17 17 17 17 17 17 17 16 17 17 17 17 17 17 17 17 17 17 17 17 17 16 16 16 16 16 16 16 16 15 15 15 15 15 14 14 14 14
15 15 15 15 16 17 17 17 17 17 17 17 16 16 16 16 16 16 16 16 16 16 16 16 16 16 16 15 15 15 15 15 15 15 14 14 14 14 14 14 14 13 13 13
14 14 14 15 16 17 17 17 17 17 16 16 16 15 15 15 15 15 15 15 15 16 15 15 15 15 15 14 15 15 14 14 14 14 14 13 13 13 13 13 13 13 13 13
14 14 14 15 15 16 16 16 16 16 16 16 16 15 15 15 14 14 15 15 15 15 14 14 14 14 14 14 14 14 13 13 13 13 13 13 13 13 12 13 13 12 12 12
14 14 13 14 15 15 15 15 15 15 15 15 15 15 14 14 14 14 14 14 14 14 14 14 14 14 13 13 13 13 13 13 13 13 13 12 12 12 12 12 12 12 12 12
14 14 14 14 14 15 14 14 14 15 14 14 14 14 14 14 14 14 13 13 13 13 13 13 13 13 13 13 13 13 12 12 12 12 12 12 12 12 12 12 12 12 12 11
15 14 14 14 14 14 14 14 14 14 14 14 14 14 14 13 13 13 13 13 13 13 13 13 12 12 12 12 12 12 12 12 12 12 12 12 12 12 12 12 11 11 11 11
14 14 14 14 14 14 14 14 14 13 13 13 13 13 13 13 13 13 12 12 12 12 12 12 12 12 12 12 12 12 12 12 12 12 12 11 11 11 11 11 11 11 11 11
14 14 14 13 13 13 14 14 13 13 13 13 13 13 13 13 12 12 12 12 12 12 12 12 11 11 11 11 11 11 11 11 11 11 11 11 11 11 11 11 11 11 11 10
13 13 13 13 13 13 13 13 13 13 13 13 13 13 12 12 12 12 12 12 12 12 11 11 11 11 11 11 11 11 11 11 11 11 11 11 11 11 11 11 10 10 10 10
14 14 14 13 13 13 13 13 13 13 13 13 13 12 12 12 12 12 12 11 11 11 11 11 11 11 11 11 11 10 10 10 10 10 10 10 10 10 10 10 10 10 9 9
13 13 13 13 13 13 13 13 13 13 12 12 12 12 12 12 11 11 11 11 11 11 11 11 10 10 10 10 10 10 10 10 10 10 10 10 10 10 10 9 9 9 9 9
13 13 13 13 13 13 12 12 12 12 12 12 12 12 11 11 11 11 11 11 11 10 10 10 10 10 10 10 10 9 9 9 9 9 9 9 9 9 9 8 8 8 8 8
12 12 12 12 12 12 12 12 12 12 12 12 11 11 11 11 11 11 10 10 10 10 10 9 9 9 9 9 9 9 9 9 8 8 8 8 8 8 8 7 7 7 7 7
12 12 12 12 12 12 12 12 11 11 11 11 11 11 11 10 10 10 10 9 9 9 9 9 9 8 8 8 8 8 8 8 8 7 7 7 7 7 6 6 6 6 6 6
12 12 12 12 11 11 11 11 11 11 11 11 10 10 10 10 10 9 9 9 9 8 8 8 8 8 8 7 7 7 7 7 7 6 6 6 6 6 6 5 5 5 5 5
11 11 11 11 11 11 11 11 11 10 10 10 10 9 9 9 9 9 8 8 8 8 8 7 7 7 7 7 6 6 6 6 6 6 5 5 5 5 5 5 5 5 4 4
11 11 11 11 11 10 10 10 10 10 10 9 9 9 8 8 8 8 8 7 7 7 7 7 6 6 6 6 5 5 5 5 5 4 4 4 4 4 4 4 4 4 4 4
10 10 10 10 10 10 9 9 9 9 9 8 8 8 8 7 7 7 7 7 6 6 6 6 5 5 5 5 4 4 4 4 4 4 4 3 3 3 3 3 3 3 3 3
10 10 9 9 9 9 9 8 8 8 8 7 7 7 7 6 6 6 6 6 5 5 5 4 4 4 4 3 3 3 3 3 3 3 3 3 3 2 2 2 2 2 2 2
Wind_Speed
6 6 5 6 8 8 7 8 8 7 8 9 9 7 6 7 8 10 10 10 11 12 11 11 11 11 12 13 12 12 12 12 12 10 9 9 9 9 9 9 10 9 9 8
3 4 3 3 7 8 7 7 6 6 7 6 5 4 3 5 7 8 10 11 11 10 10 10 11 11 12 12 12 12 13 13 12 11 10 10 9 9 9 9 8 8 9 9
3 5 3 3 5 7 4 3 6 8 6 3 4 5 5 5 7 8 8 9 9 9 10 10 10 11 12 13 11 12 13 12 12 12 11 10 10 9 9 9 9 9 9 9
1 1 5 6 3 3 4 2 3 4 3 6 8 6 4 4 6 7 6 7 7 6 5 5 6 7 8 9 10 11 10 10 10 10 9 8 7 8 8 7 7 7 8 8
3 3 4 5 2 1 2 1 1 4 6 5 9 10 7 4 5 7 7 5 5 5 5 4 4 5 6 7 8 8 8 8 8 8 8 7 7 7 7 6 7 7 7 7
4 3 4 5 5 4 2 1 1 5 8 7 6 5 2 3 6 8 8 7 6 6 6 6 3 5 7 6 6 5 5 5 5 6 7 7 8 7 5 5 6 6 6 6
3 3 4 3 6 2 3 5 1 5 8 8 4 5 5 7 8 9 9 9 8 9 8 6 6 9 9 8 6 4 4 5 4 4 5 6 5 4 4 5 4 4 4 3
2 3 4 5 3 1 3 1 4 7 8 12 12 11 10 11 10 11 10 10 10 10 9 8 8 10 10 7 4 5 6 5 4 3 2 3 3 3 4 5 4 3 3 2
3 3 3 2 1 1 1 4 5 7 9 13 13 12 11 10 10 10 10 9 9 11 11 9 8 9 9 5 5 6 6 5 4 4 3 2 4 4 3 3 3 3 3 2
0 1 2 3 4 4 5 6 7 8 10 13 14 12 12 11 11 10 10 10 9 11 11 9 8 8 7 6 6 7 6 4 4 4 4 3 3 3 3 3 3 3 3 2
1 1 4 6 4 4 7 9 11 11 11 12 15 14 13 12 11 9 10 9 9 9 10 8 8 8 7 6 7 7 5 4 3 2 2 3 2 2 3 3 4 5 4 4
2 2 2 1 3 6 10 11 12 14 14 12 13 14 13 12 10 9 9 8 9 9 8 7 7 7 6 6 7 6 5 3 2 2 1 1 1 1 2 1 3 4 5 4
3 3 5 5 7 10 13 12 14 15 14 13 12 13 13 11 9 9 9 8 8 8 7 7 7 6 5 5 6 6 4 3 2 2 1 1 0 0 1 3 2 2 4 5
6 7 8 8 9 11 14 14 14 15 13 13 12 12 12 11 10 10 9 7 7 7 7 6 6 5 4 5 6 5 4 3 3 2 1 0 0 1 1 1 1 2 3 6
8 9 9 10 11 11 11 14 15 14 12 12 11 11 11 11 10 8 6 6 7 7 6 5 5 4 3 4 5 5 4 3 2 2 2 1 1 0 1 1 2 2 2 3
10 11 12 13 12 11 12 13 13 11 10 10 10 9 9 9 8 6 6 6 7 5 4 4 3 3 3 3 4 4 3 5 4 2 2 2 2 1 1 1 2 2 3 3
12 10 11 12 12 11 10 10 10 9 9 9 8 8 8 8 7 6 5 5 5 4 2 2 2 3 3 3 3 2 3 4 6 4 3 2 2 2 2 2 2 3 3 3
10 9 10 11 11 11 9 9 9 9 8 7 8 8 7 6 5 3 3 4 5 4 3 3 2 3 4 4 3 3 3 3 3 3 3 3 3 3 3 3 3 3 3 3
11 11 10 11 10 9 8 8 7 6 6 6 7 6 5 4 4 3 3 4 4 3 4 4 5 5 5 6 5 3 3 4 4 4 3 4 3 3 3 3 3 3 2 2
12 12 12 11 10 9 8 7 7 6 5 5 6 6 5 4 3 4 4 3 1 2 2 2 4 4 4 5 6 3 4 4 4 4 3 3 3 3 3 3 3 3 2 2
11 11 11 10 9 8 7 6 6 6 5 6 6 5 4 3 3 4 4 2 3 3 2 4 3 2 3 5 6 4 4 4 4 3 3 3 3 3 4 4 4 3 3 4
8 8 8 7 7 6 4 5 6 6 6 5 5 4 4 4 4 4 3 0 2 3 3 2 2 3 5 5 4 4 4 4 3 3 3 3 3 3 3 4 4 4 3 4
7 7 6 5 5 4 5 5 5 5 5 4 4 4 4 2 2 3 2 2 2 3 3 2 3 6 7 4 3 4 4 4 3 3 3 3 3 3 3 4 4 4 4 4
6 6 5 5 6 7 6 5 5 5 4 4 4 4 4 3 3 2 1 1 3 4 3 4 6 7 6 3 3 3 4 4 4 4 4 4 4 4 4 4 4 4 5 5
4 5 5 6 6 4 4 5 6 6 6 5 6 5 4 3 2 2 2 3 4 5 4 5 7 7 5 3 4 4 4 4 4 4 4 4 5 5 5 5 5 5 5 5
4 4 5 5 4 4 4 5 5 4 4 4 4 4 4 4 4 4 3 4 5 5 4 4 4 5 4 4 4 4 4 4 5 5 5 5 5 5 5 5 6 5 5 6
6 6 6 6 5 5 5 5 4 4 4 3 3 3 4 4 4 4 4 4 4 4 4 4 4 4 4 4 4 4 4 4 4 4 5 5 5 5 6 7 6 6 6 6
Wind_Direction
229 231 220 217 208 187 180 185 188 212 202 215 202 208 209 184 166 164 170 172 175 177 179 182 186 189 190 191 189 186 184 189 195 193 194 194 191 189 188 189 193 194 194 199
316 295 249 232 220 203 195 187 193 192 228 227 187 168 166 159 155 166 175 176 177 176 173 177 183 188 190 191 188 182 186 194 193 188 194 196 196 192 191 193 194 192 194 197
276 302 336 262 227 198 182 190 173 197 221 184 154 156 172 161 152 160 170 167 168 175 179 186 190 190 191 192 187 184 191 194 191 191 194 198 198 192 193 196 195 196 198 197
178 44 231 244 272 152 145 166 163 170 171 153 144 138 119 125 140 142 148 141 143 150 160 176 181 187 191 183 180 185 190 194 195 193 196 195 196 199 204 199 196 199 202 201
157 198 256 282 308 14 151 261 106 140 127 124 113 90 62 70 116 125 122 116 122 130 143 148 154 164 157 161 168 174 182 187 187 184 187 188 198 206 207 201 201 203 199 196
163 173 227 255 298 310 88 272 287 146 146 141 109 113 133 99 101 99 92 91 94 90 86 91 99 115 118 126 131 143 157 160 159 166 178 191 202 205 205 206 208 203 198 195
182 204 243 288 305 338 166 217 205 138 135 123 118 138 129 96 88 90 87 85 85 84 82 79 85 95 96 93 99 115 114 113 119 146 178 188 188 186 183 187 188 191 195 199
169 196 250 331 355 120 218 199 115 107 111 109 108 105 95 89 87 87 84 82 83 85 79 68 75 92 91 89 93 92 90 90 92 92 118 148 147 171 172 166 163 173 172 179
185 206 269 316 276 270 144 118 109 106 112 113 113 108 99 93 86 84 85 84 83 85 79 69 68 86 92 85 82 84 83 78 77 79 82 104 125 126 111 120 137 147 148 170
110 308 323 355 41 45 69 95 102 104 110 113 114 109 102 97 91 87 86 86 85 85 81 70 63 67 72 70 78 84 80 70 67 83 84 83 99 115 127 140 148 161 168 184
157 274 13 27 42 73 82 86 86 86 96 109 112 106 102 98 93 91 87 82 84 86 84 75 68 65 62 65 73 77 74 70 66 66 84 88 99 137 160 193 185 180 192 192
208 235 124 53 76 97 98 102 104 99 93 94 103 105 101 98 96 93 89 86 83 80 79 74 70 64 57 65 76 76 64 52 57 58 64 82 89 33 341 258 224 207 201 192
140 103 104 100 86 90 97 100 101 100 102 99 94 98 99 96 92 89 86 85 87 84 79 72 65 53 39 51 70 73 70 51 42 42 54 74 95 135 337 342 326 263 235 228
110 105 93 90 94 95 98 98 95 93 93 95 97 96 95 91 86 85 86 90 92 87 81 75 68 49 33 53 60 55 46 35 31 10 349 291 249 225 201 218 277 297 273 243
80 95 104 101 94 94 101 101 96 93 93 91 92 94 95 93 90 88 86 86 83 77 68 62 55 25 8 43 51 40 27 4 357 345 334 319 314 299 250 239 237 255 274 279
98 94 95 97 95 95 97 100 101 100 101 98 95 95 98 99 95 86 82 86 85 79 65 56 36 357 17 43 39 24 6 355 1 347 337 332 326 315 302 289 265 250 253 259
105 101 103 103 97 94 94 98 102 102 97 96 97 95 92 90 85 77 70 76 89 91 82 66 10 359 27 32 28 359 345 343 353 355 337 317 305 291 278 269 260 259 261 257
103 109 111 111 110 104 97 94 94 95 99 103 101 94 92 93 95 89 79 72 66 45 14 353 3 22 22 15 12 352 340 334 335 326 319 319 307 296 294 287 278 273 278 288
94 96 97 98 101 101 99 100 101 100 101 103 100 97 94 91 89 85 76 67 60 25 332 345 26 39 18 360 3 353 345 340 337 331 328 333 337 334 327 318 309 302 296 299
86 86 86 84 83 86 87 88 90 86 87 96 95 88 77 66 72 75 74 64 23 269 289 27 46 32 8 353 359 355 351 347 348 346 350 354 349 342 338 333 329 325 315 304
89 85 83 82 81 79 82 84 85 83 81 88 92 92 81 58 61 72 74 42 331 341 23 47 38 4 355 352 354 354 352 350 351 350 352 353 351 347 344 340 333 327 322 317
82 83 85 85 85 79 74 79 88 89 80 74 74 77 68 48 44 50 57 68 301 1 32 22 3 359 360 2 1 354 350 353 358 1 0 356 354 348 343 340 331 324 322 320
82 81 77 75 77 74 71 75 81 84 78 72 70 73 77 69 69 78 20 331 345 25 35 10 2 9 12 15 5 4 5 8 6 3 358 352 347 339 333 332 326 325 327 328
77 71 65 64 68 71 64 59 69 74 74 69 62 62 71 64 34 25 55 27 38 40 33 14 15 16 18 15 12 14 14 11 4 360 360 356 350 345 342 339 337 335 334 334
75 67 62 62 63 61 62 64 58 52 56 52 45 45 52 66 65 27 24 29 36 41 35 23 20 23 26 14 14 18 19 20 16 10 5 359 355 355 354 351 347 343 343 343
80 72 70 74 78 72 67 67 61 49 54 51 36 32 35 40 49 45 38 36 38 38 31 19 15 18 17 18 25 24 22 17 15 11 4 1 358 356 349 346 346 345 341 337
69 69 68 60 53 57 63 66 66 57 53 55 39 23 31 39 46 45 41 34 31 28 22 18 20 23 24 26 28 21 15 12 8 6 3 359 356 350 346 344 342 341 340 337
Height
1454 1450 1450 1451 1451 1453 1460 1465 1472 1468 1464 1457 1454 1454 1453 1454 1456 1459 1462 1464 1467 1469 1473 1476 1479 1482 1485 1488 1491 1494 1497 1499 1501 1505 1508 1510 1513 1515 1518 1520 1521 1523 1525 1526
1454 1447 1446 1448 1446 1446 1450 1453 1456 1457 1458 1448 1448 1451 1452 1452 1454 1456 1459 1461 1464 1467 1469 1473 1476 1479 1482 1485 1488 1491 1493 1495 1498 1502 1504 1507 1509 1512 1514 1516 1517 1519 1520 1522
1463 1453 1450 1456 1447 1445 1447 1445 1448 1454 1451 1447 1448 1450 1451 1451 1452 1455 1457 1459 1462 1465 1467 1470 1472 1475 1478 1481 1484 1487 1489 1492 1495 1498 1500 1503 1506 1508 1509 1511 1513 1514 1516 1517
1466 1464 1471 1455 1440 1438 1441 1441 1441 1443 1444 1444 1445 1448 1450 1452 1452 1454 1457 1458 1460 1463 1464 1467 1470 1473 1476 1479 1482 1484 1486 1489 1492 1495 1497 1500 1502 1504 1506 1507 1509 1510 1511 1513
1468 1469 1462 1448 1440 1440 1443 1445 1440 1441 1443 1445 1445 1448 1453 1454 1454 1455 1457 1458 1460 1462 1464 1465 1468 1470 1473 1476 1479 1481 1483 1485 1488 1491 1494 1496 1497 1499 1501 1502 1504 1505 1507 1508
1463 1467 1467 1452 1440 1438 1441 1449 1441 1440 1441 1443 1444 1454 1457 1456 1456 1456 1457 1458 1460 1462 1464 1465 1467 1469 1471 1473 1475 1477 1479 1482 1484 1487 1489 1490 1492 1494 1496 1498 1499 1501 1502 1503
1461 1462 1455 1446 1440 1439 1453 1450 1442 1440 1440 1442 1446 1451 1455 1455 1457 1458 1459 1460 1461 1463 1464 1466 1467 1469 1470 1471 1473 1476 1478 1480 1481 1483 1484 1486 1488 1490 1492 1494 1495 1496 1497 1499
1461 1463 1459 1444 1441 1445 1446 1441 1441 1441 1442 1443 1447 1451 1453 1456 1458 1459 1461 1462 1463 1464 1465 1466 1467 1468 1469 1471 1473 1475 1477 1478 1479 1480 1481 1483 1484 1486 1487 1489 1490 1491 1493 1494
1456 1457 1449 1445 1444 1443 1441 1441 1442 1443 1444 1444 1448 1452 1455 1458 1460 1462 1463 1465 1466 1466 1467 1468 1469 1470 1470 1473 1475 1475 1476 1477 1478 1479 1479 1480 1481 1482 1483 1485 1485 1487 1488 1489
1452 1450 1447 1444 1442 1442 1442 1443 1443 1444 1446 1448 1450 1454 1458 1461 1463 1465 1466 1467 1468 1469 1469 1470 1472 1473 1473 1475 1476 1476 1477 1478 1479 1479 1479 1479 1479 1480 1481 1482 1483 1484 1485 1486
1452 1449 1447 1445 1445 1445 1445 1446 1447 1449 1450 1452 1454 1458 1461 1463 1465 1467 1469 1470 1472 1472 1473 1474 1475 1476 1477 1478 1478 1478 1478 1479 1479 1479 1479 1479 1479 1480 1480 1481 1481 1482 1483 1483
1452 1449 1449 1450 1448 1448 1448 1450 1452 1452 1455 1458 1459 1461 1464 1466 1469 1471 1472 1474 1475 1476 1476 1477 1478 1479 1479 1480 1480 1480 1480 1480 1480 1480 1479 1479 1479 1480 1480 1480 1480 1480 1480 1480
1449 1450 1449 1450 1451 1451 1452 1454 1455 1456 1458 1462 1465 1466 1468 1471 1473 1475 1477 1478 1478 1479 1480 1481 1481 1481 1482 1482 1481 1481 1481 1481 1481 1481 1480 1479 1479 1479 1478 1479 1478 1478 1478 1478
1450 1451 1452 1453 1454 1456 1457 1459 1460 1462 1464 1467 1469 1471 1473 1475 1477 1478 1480 1482 1482 1483 1483 1484 1484 1484 1484 1483 1483 1482 1482 1482 1481 1481 1480 1479 1479 1478 1478 1477 1476 1476 1475 1475
1453 1453 1455 1457 1458 1460 1461 1463 1465 1468 1471 1473 1475 1476 1477 1478 1480 1482 1484 1485 1485 1485 1485 1485 1485 1485 1485 1485 1484 1483 1482 1482 1481 1481 1480 1479 1478 1477 1476 1475 1474 1473 1472 1472
1457 1458 1459 1460 1462 1464 1466 1468 1470 1473 1475 1477 1479 1480 1481 1482 1484 1486 1487 1487 1487 1487 1487 1487 1487 1486 1486 1485 1485 1483 1482 1481 1480 1479 1478 1477 1476 1475 1474 1472 1471 1470 1469 1468
1459 1462 1463 1465 1467 1469 1471 1472 1474 1477 1479 1480 1482 1483 1484 1486 1487 1488 1488 1488 1488 1488 1489 1489 1488 1487 1486 1486 1484 1483 1482 1480 1479 1478 1477 1475 1474 1473 1471 1470 1468 1466 1465 1464
1463 1465 1467 1468 1470 1473 1475 1477 1479 1481 1482 1484 1485 1486 1487 1488 1488 1488 1489 1489 1489 1489 1489 1489 1488 1487 1486 1485 1483 1482 1480 1479 1478 1476 1475 1473 1471 1470 1468 1466 1464 1463 1461 1459
1468 1470 1471 1473 1475 1477 1479 1481 1483 1484 1485 1486 1487 1487 1488 1489 1489 1489 1489 1489 1489 1489 1489 1488 1487 1486 1485 1483 1482 1480 1478 1477 1475 1473 1472 1470 1468 1466 1464 1462 1460 1458 1456 1454
1472 1474 1475 1477 1479 1480 1482 1484 1485 1486 1487 1488 1488 1489 1489 1489 1489 1489 1489 1489 1489 1488 1488 1487 1485 1484 1483 1481 1479 1478 1476 1474 1472 1470 1468 1466 1464 1462 1460 1458 1456 1454 1452 1450
1476 1478 1479 1481 1483 1484 1485 1486 1487 1488 1488 1489 1489 1489 1490 1490 1489 1489 1488 1488 1488 1487 1486 1485 1484 1482 1480 1479 1477 1475 1473 1471 1469 1467 1465 1463 1461 1458 1456 1454 1452 1450 1447 1445
1480 1481 1483 1484 1486 1487 1487 1488 1489 1489 1489 1490 1489 1489 1489 1489 1489 1488 1488 1488 1487 1486 1484 1483 1481 1480 1478 1476 1474 1472 1470 1468 1465 1463 1461 1459 1457 1455 1452 1450 1448 1445 1443 1440
1483 1484 1486 1487 1487 1488 1489 1489 1489 1490 1490 1490 1489 1489 1489 1488 1488 1487 1487 1486 1485 1484 1482 1481 1479 1477 1475 1473 1471 1469 1467 1464 1462 1460 1458 1456 1454 1451 1449 1446 1444 1441 1438 1435
1485 1487 1487 1488 1489 1489 1489 1490 1490 1490 1490 1490 1489 1489 1488 1488 1487 1486 1485 1484 1483 1482 1480 1478 1476 1474 1472 1470 1468 1466 1464 1461 1459 1457 1455 1452 1450 1448 1445 1442 1440 1437 1434 1431
1487 1488 1489 1489 1490 1490 1491 1491 1491 1490 1490 1489 1489 1488 1488 1487 1486 1485 1484 1482 1481 1479 1477 1475 1473 1471 1469 1467 1465 1463 1461 1458 1456 1454 1452 1449 1447 1444 1441 1439 1436 1433 1430 1427
1489 1489 1490 1490 1491 1491 1491 1491 1490 1490 1490 1489 1488 1487 1486 1485 1484 1483 1482 1480 1478 1477 1475 1473 1470 1468 1466 1464 1462 1460 1458 1456 1453 1451 1448 1446 1443 1441 1438 1435 1432 1430 1426 1423
1490 1490 1491 1491 1491 1491 1491 1491 1490 1490 1489 1488 1487 1486 1485 1484 1482 1481 1480 1478 1476 1474 1472 1470 1468 1466 1464 1462 1459 1457 1455 1453 1450 1448 1445 1443 1440 1437 1435 1432 1429 1426 1423 1419